CAPE
1 7 18 11 1 0 0 0 0 0 0 0 0 0 0 0 0 0 0 0 0 0 0 0 0 0 0 0 0 0 0 0 0 0 0 0 1 0 6 0 0 0 0 0
0 3 8 14 5 0 0 0 0 0 0 0 0 0 0 0 0 0 0 0 0 0 0 0 0 0 0 0 0 0 2 2 0 0 0 0 0 0 0 5 0 0 1 0
4 0 5 20 4 0 0 0 0 0 0 0 0 0 0 0 0 0 0 0 0 0 0 0 0 0 0 0 0 0 7 1 1 0 0 0 0 0 0 0 2 0 0 0
0 2 7 14 3 1 0 0 0 0 0 0 0 0 0 0 0 0 0 0 0 0 1 1 0 0 0 0 0 0 3 2 0 0 0 0 0 0 0 0 0 0 0 0
5 7 4 6 14 0 0 0 0 1 0 0 0 0 0 0 0 0 0 0 0 0 0 0 0 3 0 1 0 0 0 0 0 0 0 0 0 0 0 0 0 0 0 0
11 1 0 8 11 0 0 0 0 0 0 0 0 0 0 0 0 0 0 2 0 0 0 0 0 0 0 0 0 0 5 2 0 0 0 0 0 0 0 0 0 0 0 1
12 1 2 0 12 0 0 0 0 0 0 0 0 0 0 0 0 0 0 0 0 0 0 0 0 0 0 0 0 0 1 2 0 0 0 0 0 0 0 0 1 3 0 0
14 8 6 2 2 11 0 0 0 0 0 0 0 0 0 0 0 0 0 0 0 0 0 0 0 0 0 0 0 0 0 0 0 0 1 0 0 0 0 0 0 0 1 0
10 19 15 9 4 17 8 0 0 0 0 0 0 0 0 0 0 0 0 0 0 0 0 0 0 0 0 0 0 0 0 0 1 0 0 0 0 0 0 0 0 0 3 0
0 10 13 3 7 10 5 10 1 0 1 0 0 0 0 0 0 0 0 0 0 2 0 0 0 0 0 0 0 0 0 0 0 0 0 0 0 0 0 0 0 0 0 1
10 5 17 14 1 4 15 2 2 1 0 0 0 0 0 0 0 0 0 0 0 0 0 0 0 0 0 0 0 0 0 0 0 0 0 0 0 0 0 0 0 0 2 3
8 15 10 3 1 11 19 8 0 0 1 0 0 0 0 0 0 0 0 0 0 0 0 0 0 0 0 0 0 0 0 0 0 0 0 0 0 0 0 0 0 0 4 0
4 2 5 9 15 18 15 6 0 1 0 0 0 0 0 0 0 0 4 0 0 0 0 0 0 0 0 0 0 0 0 0 0 1 0 0 0 0 0 0 0 0 0 0
2 4 10 15 17 7 22 10 0 0 0 0 0 0 0 0 0 0 0 0 0 0 0 0 0 0 0 0 0 0 0 0 0 0 0 0 0 0 0 0 0 0 0 0
4 5 4 2 0 4 20 22 1 1 0 0 0 0 0 0 0 0 0 0 0 0 1 1 0 0 0 0 0 0 0 0 0 0 0 0 0 0 0 0 0 0 0 0
6 15 13 17 17 15 1 0 0 0 1 0 0 0 0 0 0 0 0 0 2 0 0 0 2 0 2 0 0 0 0 0 0 0 0 0 0 0 0 0 0 0 0 0
13 11 11 13 12 0 0 0 0 1 1 0 0 0 0 0 0 0 0 0 1 1 1 2 3 8 1 0 0 0 0 0 0 0 0 0 0 0 0 0 0 0 0 0
0 2 6 17 13 11 0 0 1 0 0 0 0 0 0 0 0 0 0 2 0 0 0 1 2 0 1 1 0 0 0 0 0 0 0 1 1 1 0 0 0 0 0 0
0 1 3 1 9 1 0 0 0 0 0 0 0 0 0 0 0 0 0 0 0 0 0 0 0 0 0 0 0 0 0 0 0 0 0 0 0 0 0 0 0 0 0 2
0 1 0 0 0 0 0 15 17 0 0 0 0 0 0 0 0 0 0 0 0 0 0 0 1 0 0 0 0 0 0 0 0 0 0 0 0 0 1 0 0 1 0 0
7 5 0 0 7 2 0 0 1 0 0 0 0 0 0 0 0 0 0 0 0 0 0 0 0 0 0 0 0 0 0 0 0 0 0 0 0 0 0 0 0 0 0 0
11 3 0 0 2 1 0 0 0 0 0 0 0 0 0 0 0 0 0 0 0 0 0 0 0 0 0 0 0 0 0 0 0 0 0 0 0 0 0 0 0 0 0 0
5 0 1 0 0 0 0 0 0 0 0 0 0 0 0 0 0 0 0 0 0 0 0 0 0 0 0 0 0 0 0 0 0 0 0 0 0 0 0 0 0 1 0 0
0 0 1 0 0 0 0 0 0 0 0 0 0 0 0 0 0 0 0 0 0 0 0 0 0 0 0 0 0 0 0 0 0 0 0 0 0 0 0 0 0 0 0 0
0 1 0 0 0 0 0 0 0 0 0 0 0 0 0 0 0 0 6 7 0 0 0 0 0 0 0 0 0 0 0 0 0 0 0 0 1 0 0 1 0 0 0 1
0 2 0 0 0 0 0 0 0 0 0 0 0 0 0 1 1 7 3 5 0 0 0 0 0 0 0 0 0 0 0 0 0 0 0 0 0 0 0 0 0 0 0 0
0 0 0 0 0 0 0 0 3 11 0 0 0 0 0 0 2 2 5 0 0 0 0 0 0 0 0 0 0 0 0 0 0 0 0 0 0 0 0 0 0 0 0 0
CIN
-13 -10 -10 -17 -11 -0 -0 -0 -0 -0 -0 -0 -0 -0 -0 -0 -0 -0 -0 -0 -0 -0 -0 -0 -0 -0 -0 -0 -0 -0 -0 -0 -0 -0 -0 -0 -7 -0 -0 -0 -0 -1 -0 -0
-0 -14 -13 -11 -21 -0 -0 -0 -0 -0 -0 -0 -0 -0 -0 -0 -0 -0 -0 -0 -0 -0 -0 -0 -0 -0 -0 -0 -0 -0 -1 -1 -0 -0 -0 -0 -0 -0 -0 -0 -4 -0 -0 -0
-12 -10 -15 -10 -22 -0 -0 -0 -0 -0 -0 -0 -0 -0 -0 -0 -0 -0 -0 -0 -0 -0 -0 -0 -0 -0 -0 -0 -0 -0 -3 -4 -2 -0 -0 -0 -0 -0 -0 -0 -0 -0 -0 -0
-8 -11 -13 -10 -10 -12 -0 -0 -0 -0 -0 -0 -0 -0 -0 -0 -0 -0 -0 -0 -0 -0 -0 -0 -0 -0 -0 -0 -0 -0 -5 -2 -0 -0 -0 -0 -0 -0 -0 -0 -0 -0 -0 -0
-13 -15 -8 -13 -5 -0 -0 -0 -0 -0 -0 -0 -0 -0 -0 -0 -0 -0 -0 -0 -4 -0 -0 -0 -0 -1 -0 -0 -0 -0 -0 -0 -0 -0 -0 -0 -0 -0 -0 -0 -0 -0 -0 -1
-14 -9 -0 -20 -7 -0 -0 -0 -0 -0 -0 -0 -0 -0 -0 -0 -0 -0 -0 -2 -6 -0 -0 -0 -0 -0 -0 -0 -0 -0 -0 -0 -0 -0 -0 -0 -0 -0 -0 -0 -0 -0 -0 -0
-11 -8 -4 -0 -6 -0 -0 -0 -0 -0 -0 -0 -0 -0 -0 -0 -0 -0 -0 -0 -0 -0 -2 -0 -0 -0 -0 -0 -0 -0 -0 -0 -0 -0 -0 -0 -0 -0 -0 -0 -0 -0 -0 -0
-12 -14 -5 -7 -13 -2 -0 -0 -0 -0 -0 -0 -0 -0 -0 -0 -0 -0 -0 -0 -0 -0 -0 -0 -0 -0 -0 -0 -0 -0 -0 -0 -0 -0 -1 -0 -0 -0 -1 -0 -0 -0 -0 -0
-13 -7 -8 -5 -6 -7 -2 -4 -0 -0 -0 -0 -0 -0 -0 -0 -0 -0 -0 -0 -0 -0 -0 -0 -0 -0 -0 -0 -0 -0 -0 -0 -0 -0 -0 -0 -0 -8 -0 -1 -0 -0 -0 -0
-5 -16 -11 -13 -2 -7 -6 -3 -8 -0 -4 -0 -0 -0 -0 -0 -0 -0 -0 -0 -0 -3 -0 -0 -0 -0 -0 -0 -0 -0 -0 -0 -0 -0 -0 -0 -0 -0 -0 -0 -0 -0 -0 -0
-7 -12 -9 -3 -10 -8 -4 -1 -10 -0 -0 -2 -0 -0 -0 -0 -1 -0 -0 -0 -0 -0 -0 -0 -0 -0 -0 -0 -0 -0 -0 -0 -0 -0 -0 -0 -0 -0 -0 -0 -0 -0 -0 -0
-4 -6 -2 -7 -5 -7 -5 -0 -0 -0 -0 -0 -0 -0 -0 -0 -0 -0 -0 -0 -0 -0 -0 -0 -0 -0 -0 -0 -0 -0 -0 -0 -0 -0 -0 -0 -0 -0 -0 -0 -0 -0 -0 -0
-5 -5 -6 -8 -2 -5 -3 -1 -0 -0 -0 -0 -0 -0 -0 -0 -0 -0 -0 -0 -0 -0 -0 -0 -0 -0 -0 -0 -0 -0 -0 -0 -0 -1 -0 -0 -0 -0 -1 -0 -0 -0 -0 -0
-4 -4 -3 -3 -0 -0 -3 -1 -0 -0 -0 -0 -0 -0 -0 -0 -0 -0 -0 -0 -0 -0 -0 -0 -0 -0 -0 -0 -0 -0 -0 -0 -0 -0 -0 -0 -0 -0 -0 -0 -0 -0 -0 -0
-3 -2 -3 -5 -3 -2 -4 -6 -12 -2 -0 -0 -0 -0 -0 -0 -0 -0 -0 -0 -0 -0 -0 -1 -0 -0 -0 -0 -0 -0 -0 -0 -0 -0 -0 -0 -0 -0 -0 -0 -0 -0 -0 -0
-3 -3 -5 -5 -2 -1 -2 -1 -0 -0 -2 -0 -0 -0 -0 -0 -0 -0 -0 -0 -0 -0 -0 -2 -0 -1 -0 -0 -0 -0 -0 -0 -0 -0 -0 -0 -0 -0 -0 -0 -0 -0 -0 -0
-2 -2 -1 -2 -1 -1 -4 -0 -0 -0 -0 -0 -0 -0 -0 -0 -0 -0 -0 -0 -0 -0 -0 -0 -0 -0 -0 -0 -0 -0 -0 -0 -0 -0 -0 -0 -0 -0 -0 -0 -0 -0 -0 -0
-5 -7 -5 -2 -1 -1 -0 -0 -0 -0 -0 -0 -0 -0 -0 -0 -0 -0 -0 -0 -0 -0 -0 -0 -0 -1 -0 -0 -0 -0 -0 -0 -0 -0 -0 -0 -0 -0 -0 -0 -0 -0 -0 -0
-0 -0 -4 -2 -1 -0 -0 -0 -0 -0 -0 -0 -0 -0 -0 -0 -0 -0 -0 -0 -0 -0 -0 -0 -0 -1 -0 -0 -0 -0 -0 -0 -0 -0 -0 -0 -0 -0 -0 -0 -0 -0 -0 -0
-0 -1 -0 -0 -0 -0 -0 -1 -5 -0 -0 -0 -0 -0 -0 -0 -0 -0 -0 -0 -3 -0 -0 -0 -2 -0 -0 -0 -0 -0 -0 -0 -0 -0 -0 -0 -0 -0 -0 -0 -0 -0 -0 -0
-1 -1 -0 -0 -1 -1 -0 -0 -4 -0 -0 -0 -0 -0 -0 -0 -0 -0 -0 -0 -0 -0 -0 -0 -0 -0 -0 -0 -0 -0 -0 -0 -0 -0 -0 -0 -0 -0 -0 -0 -0 -0 -0 -0
-2 -0 -0 -0 -0 -0 -0 -0 -0 -0 -0 -0 -0 -0 -0 -0 -0 -0 -0 -0 -0 -0 -0 -0 -0 -0 -0 -0 -0 -0 -0 -0 -0 -0 -0 -0 -0 -0 -0 -0 -0 -0 -1 -0
-3 -6 -2 -0 -0 -0 -0 -0 -0 -0 -0 -0 -0 -0 -0 -0 -0 -0 -0 -0 -0 -0 -0 -0 -0 -0 -0 -0 -0 -0 -0 -0 -0 -0 -0 -0 -0 -0 -0 -0 -1 -1 -0 -1
-0 -0 -4 -0 -0 -0 -0 -0 -0 -0 -2 -2 -0 -0 -0 -0 -0 -0 -0 -0 -0 -0 -0 -0 -0 -0 -0 -0 -0 -0 -0 -0 -0 -0 -0 -0 -0 -0 -0 -0 -0 -0 -0 -1
-0 -1 -0 -0 -0 -0 -0 -0 -0 -0 -0 -0 -0 -0 -0 -0 -0 -0 -25 -16 -0 -0 -0 -0 -0 -0 -0 -0 -0 -0 -0 -0 -0 -0 -0 -0 -1 -1 -2 -3 -4 -0 -0 -3
-0 -4 -0 -0 -0 -0 -0 -0 -0 -0 -0 -0 -0 -0 -0 -13 -11 -8 -10 -9 -0 -0 -0 -0 -0 -0 -0 -0 -0 -0 -0 -0 -0 -0 -0 -0 -0 -0 -0 -0 -0 -0 -0 -0
-0 -0 -0 -0 -0 -0 -0 -0 -6 -47 -1 -0 -0 -0 -0 -0 -6 -1 -7 -0 -0 -0 -0 -0 -0 -0 -0 -0 -0 -0 -0 -0 -0 -0 -0 -0 -0 -0 -0 -0 -0 -0 -0 -0
Wind_Speed
18 17 16 16 20 21 21 18 19 16 17 20 20 21 20 19 20 21 21 18 17 18 22 21 19 16 19 30 31 33 24 29 33 34 30 22 21 30 27 29 29 32 32 36
18 17 17 15 18 20 18 19 18 16 15 20 20 19 19 17 20 21 21 20 18 20 20 22 16 18 24 35 32 31 29 26 36 33 20 22 30 30 30 31 33 32 34 33
16 18 15 14 15 17 18 19 19 18 17 16 19 20 20 20 18 20 18 18 18 20 20 16 17 20 28 32 36 30 32 25 26 33 32 38 38 37 37 35 34 37 39 43
13 16 14 13 12 14 17 19 18 17 19 18 17 18 19 20 22 18 19 19 16 21 22 19 17 21 41 36 32 23 21 33 33 28 32 39 41 39 38 37 37 36 38 36
13 14 13 13 11 12 16 17 17 17 17 17 17 17 19 20 20 19 20 17 18 20 20 18 21 18 26 28 29 24 23 31 37 42 41 35 40 40 37 30 31 33 34 35
12 12 10 10 10 11 14 14 15 17 17 17 18 17 18 19 21 19 17 19 19 20 20 19 17 18 16 14 12 12 18 23 31 40 31 34 33 18 25 27 29 28 29 30
11 10 9 8 7 7 12 13 15 16 17 15 16 16 14 16 17 18 19 17 17 18 22 22 17 12 10 9 7 8 14 12 19 28 25 21 17 31 25 28 28 27 29 29
11 12 10 6 6 4 10 10 12 14 17 15 16 14 14 15 17 19 20 16 14 19 21 23 23 23 21 21 19 18 15 12 17 16 15 25 26 18 21 30 29 25 29 31
14 13 10 5 5 7 6 8 7 12 17 16 13 16 14 17 20 23 21 18 18 19 18 19 19 20 21 23 22 18 23 11 8 12 16 17 15 24 29 27 28 24 30 32
14 13 11 7 5 7 9 11 4 10 15 14 12 15 16 15 19 20 22 22 22 16 16 16 17 16 16 20 22 24 21 14 11 17 22 22 24 27 29 23 24 31 31 29
13 12 10 8 7 8 9 12 2 8 15 14 10 12 12 13 16 18 20 25 18 16 15 16 15 14 16 16 14 16 18 19 15 17 20 23 19 26 25 29 29 29 29 27
14 12 11 11 10 10 10 13 7 5 11 13 15 13 12 10 9 14 14 13 15 14 14 14 14 13 14 15 16 13 14 16 23 19 24 31 32 31 32 28 30 31 29 28
15 14 14 14 10 11 10 12 10 13 16 17 14 11 10 6 5 3 10 12 7 9 8 12 12 10 11 13 12 12 13 10 8 28 18 33 34 32 24 30 33 29 25 26
16 16 16 12 12 13 12 13 8 12 16 21 17 14 14 13 7 3 6 3 9 10 9 9 9 9 7 11 10 10 6 8 4 7 34 33 27 30 35 33 30 28 26 26
16 15 15 13 13 13 15 12 9 7 11 18 19 24 18 11 6 4 3 4 2 8 11 10 9 8 8 8 13 8 8 9 11 12 28 34 39 39 38 37 34 30 29 29
19 17 16 16 14 12 14 19 12 6 7 19 22 18 22 19 13 6 4 1 3 4 9 10 8 5 5 12 10 10 1 1 3 10 28 38 37 33 28 28 28 29 30 29
21 19 16 13 13 9 13 16 14 8 9 15 21 18 17 15 14 13 11 6 9 7 9 9 6 5 3 9 7 3 9 6 11 8 20 24 25 26 27 27 27 27 28 28
20 20 20 16 12 12 14 12 6 7 14 13 17 16 19 13 14 14 12 12 10 8 10 12 9 7 3 8 7 8 9 14 15 18 15 13 23 25 27 28 28 28 29 30
19 21 17 16 15 16 15 6 4 11 12 16 14 17 19 15 15 14 12 12 14 12 10 11 6 6 5 6 6 7 14 15 19 20 18 17 14 24 26 27 27 28 30 32
18 17 17 19 16 10 11 12 13 11 10 10 17 17 17 16 15 15 15 15 16 18 13 11 10 10 12 10 11 16 14 16 19 22 21 22 23 25 26 27 28 28 29 30
16 16 18 16 12 12 14 16 15 13 17 15 19 14 15 15 14 13 14 15 16 19 16 12 17 17 7 12 12 11 13 15 17 19 21 21 22 24 27 28 29 29 30 32
15 18 17 15 15 16 17 17 15 15 20 16 16 15 11 12 10 11 12 16 15 19 13 15 18 14 18 17 14 13 13 14 17 20 21 23 25 25 27 29 31 31 32 32
16 17 18 17 18 22 22 21 19 19 16 15 15 15 11 10 9 13 13 15 16 16 15 16 13 17 18 16 14 14 15 16 17 19 21 23 26 27 29 31 31 32 34 33
18 20 24 21 22 22 20 20 18 17 18 18 15 15 12 12 11 13 16 16 15 17 17 17 19 19 14 14 15 15 16 18 18 19 20 22 26 28 30 32 33 35 37 37
20 19 25 24 21 20 19 16 18 19 19 19 19 19 17 16 17 14 16 17 17 18 20 19 19 18 14 15 15 16 16 17 18 19 19 20 22 26 30 32 33 35 37 37
20 21 22 21 23 24 23 23 24 20 20 20 20 21 20 20 19 16 15 17 18 20 19 20 18 17 14 13 13 14 15 18 22 23 22 23 25 27 30 32 32 35 36 37
22 25 23 25 26 24 21 19 22 19 19 22 20 22 22 19 20 20 18 21 25 22 21 20 19 18 17 16 16 17 18 21 27 29 29 30 32 32 33 34 33 34 32 29
Wind_Direction
3 9 17 19 17 19 22 27 17 28 29 15 18 18 17 17 12 10 8 9 4 1 359 357 358 359 353 331 326 316 334 312 297 296 306 315 315 308 311 307 300 293 283 271
1 5 10 22 19 21 24 19 21 28 29 12 15 16 13 15 11 12 11 7 5 3 359 358 5 354 340 320 322 319 322 312 293 302 321 318 308 305 300 303 297 285 277 270
4 2 12 25 24 27 24 19 15 21 23 21 13 10 10 11 17 4 6 8 4 2 359 357 354 343 330 324 317 326 310 313 305 297 301 292 283 291 289 293 291 281 273 274
5 6 14 23 31 30 23 18 17 22 10 11 12 15 11 5 2 9 9 8 8 359 351 348 340 342 298 321 323 329 327 299 303 304 289 280 271 282 288 287 279 274 270 278
357 2 9 17 37 34 16 13 17 19 11 9 7 7 9 5 4 5 2 358 356 354 349 341 324 331 334 331 326 323 324 308 297 274 276 285 273 279 279 289 296 277 273 275
351 356 9 18 31 27 12 17 20 15 11 9 6 6 9 9 7 2 2 360 352 341 336 339 331 322 302 287 282 288 315 315 303 279 295 288 289 301 298 295 300 290 283 288
347 353 0 11 35 32 11 12 14 9 360 3 1 1 0 354 352 344 343 345 342 351 350 344 341 329 308 305 285 306 316 307 311 300 301 296 307 289 293 295 296 298 299 297
342 342 353 8 13 45 8 10 6 4 354 353 349 347 350 354 356 350 346 344 352 357 360 360 4 10 11 13 17 12 10 326 311 304 302 297 296 314 305 300 292 309 302 301
334 338 348 2 2 7 7 357 4 359 352 348 357 356 356 352 356 357 3 7 4 7 7 12 15 18 13 8 10 12 4 30 335 313 298 303 312 304 301 302 282 310 312 305
329 332 338 343 348 354 356 353 2 349 343 342 347 350 354 4 0 356 357 5 3 14 16 15 16 19 24 14 12 8 5 16 359 301 290 294 291 303 299 291 287 302 314 310
324 327 337 347 344 343 344 343 343 337 336 331 334 337 336 343 352 351 357 359 18 21 19 17 21 24 20 18 19 22 14 350 345 316 299 296 302 302 310 288 284 284 298 308
333 335 336 334 335 339 347 336 350 333 329 334 339 330 320 309 309 341 352 360 14 21 17 19 20 20 16 15 17 34 30 11 329 314 298 272 285 286 291 287 284 288 284 304
327 325 323 324 328 331 334 331 339 339 328 325 325 336 327 314 270 296 341 354 5 9 16 8 8 3 15 7 10 11 13 16 12 302 321 289 283 284 290 295 295 296 308 304
327 327 328 321 329 331 338 333 348 341 340 333 343 354 349 347 343 295 229 307 14 14 14 360 354 353 19 357 345 332 330 346 11 243 270 292 301 288 287 291 297 297 298 300
324 325 325 327 326 325 328 327 324 323 329 333 330 329 330 349 344 320 253 228 294 357 352 347 342 352 351 332 333 309 354 2 2 348 322 306 292 289 287 284 286 295 292 298
321 322 323 323 326 337 337 330 330 311 324 333 334 343 331 340 354 14 25 164 338 338 351 343 341 311 0 354 359 356 62 356 310 268 324 303 297 306 310 298 297 296 297 303
323 323 322 324 325 327 328 334 351 29 360 341 337 344 346 353 1 3 360 8 347 337 335 329 316 344 16 339 278 240 360 305 255 248 342 332 329 324 317 307 306 309 307 309
320 322 321 323 326 326 314 323 15 7 345 344 338 338 337 349 348 346 355 353 353 353 345 341 332 349 335 325 268 252 340 352 356 359 2 1 331 321 316 309 306 308 308 308
315 321 327 326 321 314 319 325 312 323 328 331 334 330 334 345 340 346 352 353 347 359 344 342 352 328 299 268 311 330 342 345 345 348 356 9 14 332 323 318 315 310 309 308
316 318 319 315 322 339 351 337 318 320 316 313 315 315 313 328 332 337 340 341 341 346 354 8 344 308 240 289 302 322 331 335 341 335 344 340 344 338 334 324 319 319 316 315
314 306 308 322 340 331 322 313 311 321 322 321 316 301 302 317 308 318 333 337 343 341 354 359 348 342 357 348 347 344 339 340 340 340 338 340 342 337 333 329 325 325 323 320
315 313 316 320 311 308 307 308 316 316 315 321 321 317 315 326 326 327 333 328 335 332 359 353 341 2 355 351 356 358 357 354 346 339 333 331 330 330 329 327 325 323 324 323
312 310 305 307 302 291 297 297 306 309 320 322 318 314 321 319 316 322 324 322 321 338 337 338 342 346 346 350 352 351 351 351 348 342 338 333 325 324 324 324 327 326 325 326
300 295 291 292 298 300 293 289 301 304 311 315 311 308 305 311 310 316 319 319 324 322 326 327 341 345 350 349 346 344 343 341 344 346 344 339 330 327 323 324 324 323 320 322
289 294 292 289 292 299 312 309 304 303 304 304 305 302 302 302 302 309 312 316 315 317 317 327 339 348 353 347 344 341 341 340 341 347 347 345 341 336 331 330 329 326 324 323
287 288 293 301 301 297 295 294 297 304 298 299 295 293 294 290 296 295 296 306 310 319 327 333 343 347 351 350 349 348 347 340 333 335 335 335 334 333 333 332 332 328 327 323
290 287 286 289 291 296 302 302 306 305 299 293 293 286 284 295 291 290 297 298 304 314 321 331 337 337 340 344 344 340 338 334 325 324 326 326 325 327 329 330 331 331 333 335